Time,TemperatureF,DewpointF,PressureIn,WindDirection,WindDirectionDegrees,WindSpeedMPH,WindSpeedGustMPH,Humidity,HourlyPrecipIn,Conditions,Clouds,dailyrainin,SoftwareType,DateUTC
2013-02-04 00:03:00,60.2,29.3,29.94,South,180,4.2,4.2,31,0.00,,,0.00,WUHU216HW,2013-02-04 06:03:00,
2013-02-04 00:08:00,60.0,29.2,29.93,South,180,4.0,4.2,31,0.00,,,0.00,WUHU216HW,2013-02-04 06:08:00,
2013-02-04 00:13:00,60.0,29.2,29.93,South,180,0.0,4.2,31,0.00,,,0.00,WUHU216HW,2013-02-04 06:13:00,
2013-02-04 00:18:00,60.2,29.3,29.93,SSE,158,0.0,4.0,31,0.00,,,0.00,WUHU216HW,2013-02-04 06:18:00,
2013-02-04 00:23:00,60.2,28.6,29.93,South,180,0.0,6.9,30,0.00,,,0.00,WUHU216HW,2013-02-04 06:23:00,
2013-02-04 00:29:00,60.2,28.6,29.93,SSW,203,6.9,7.6,30,0.00,,,0.00,WUHU216HW,2013-02-04 06:29:00,
2013-02-04 00:34:00,60.2,28.6,29.93,SSE,158,0.0,7.6,30,0.00,,,0.00,WUHU216HW,2013-02-04 06:34:00,
2013-02-04 00:39:00,60.4,28.8,29.93,South,180,6.2,6.9,30,0.00,,,0.00,WUHU216HW,2013-02-04 06:39:00,
2013-02-04 00:44:00,60.0,28.5,29.94,South,180,5.1,6.9,30,0.00,,,0.00,WUHU216HW,2013-02-04 06:44:00,
2013-02-04 00:49:00,60.0,28.5,29.94,SSE,158,0.0,6.2,30,0.00,,,0.00,WUHU216HW,2013-02-04 06:49:00,
2013-02-04 00:54:00,60.0,28.5,29.93,South,180,1.5,8.5,30,0.00,,,0.00,WUHU216HW,2013-02-04 06:54:00,
2013-02-04 00:59:00,60.0,28.5,29.93,South,180,0.8,8.5,30,0.00,,,0.00,WUHU216HW,2013-02-04 06:59:00,
2013-02-04 01:04:00,60.0,28.5,29.93,South,180,0.8,4.9,30,0.00,,,0.00,WUHU216HW,2013-02-04 07:04:00,
2013-02-04 01:09:00,60.0,28.5,29.93,South,180,2.4,6.0,30,0.00,,,0.00,WUHU216HW,2013-02-04 07:09:00,
2013-02-04 01:14:00,60.0,28.5,29.92,SSE,158,6.4,6.4,30,0.00,,,0.00,WUHU216HW,2013-02-04 07:14:00,
2013-02-04 01:19:00,60.0,28.5,29.92,SSE,158,0.0,6.7,30,0.00,,,0.00,WUHU216HW,2013-02-04 07:19:00,
2013-02-04 01:24:00,60.0,28.5,29.92,South,180,0.0,6.7,30,0.00,,,0.00,WUHU216HW,2013-02-04 07:24:00,
2013-02-04 01:29:00,60.0,29.2,29.92,SSE,158,6.7,6.7,31,0.00,,,0.00,WUHU216HW,2013-02-04 07:29:00,
2013-02-04 01:34:00,60.0,29.2,29.92,South,180,0.0,6.7,31,0.00,,,0.00,WUHU216HW,2013-02-04 07:34:00,
2013-02-04 01:39:00,60.0,29.2,29.92,South,180,8.2,8.2,31,0.00,,,0.00,WUHU216HW,2013-02-04 07:39:00,
2013-02-04 01:44:00,60.0,30.6,29.92,SSW,203,4.9,8.2,33,0.00,,,0.00,WUHU216HW,2013-02-04 07:44:00,
2013-02-04 01:49:00,60.0,30.6,29.92,SSW,203,0.0,8.2,33,0.00,,,0.00,WUHU216HW,2013-02-04 07:49:00,
2013-02-04 01:54:00,60.0,30.6,29.92,South,180,2.4,8.7,34,0.00,,,0.00,WUHU216HW,2013-02-04 07:54:00,
2013-02-04 01:59:00,59.9,31.2,29.91,SSE,158,4.2,8.7,34,0.00,,,0.00,WUHU216HW,2013-02-04 07:59:00,
2013-02-04 02:04:00,59.9,31.9,29.91,SSE,158,0.0,6.0,35,0.00,,,0.00,WUHU216HW,2013-02-04 08:04:00,
2013-02-04 02:09:00,59.7,31.8,29.91,South,180,5.8,8.5,35,0.00,,,0.00,WUHU216HW,2013-02-04 08:09:00,
2013-02-04 02:14:00,59.7,32.5,29.90,SSW,203,7.8,8.5,36,0.00,,,0.00,WUHU216HW,2013-02-04 08:14:00,
2013-02-04 02:19:00,59.5,32.3,29.90,South,180,0.0,7.8,36,0.00,,,0.00,WUHU216HW,2013-02-04 08:19:00,
2013-02-04 02:24:00,59.5,33.0,29.89,SSE,158,7.1,7.8,37,0.00,,,0.00,WUHU216HW,2013-02-04 08:24:00,
2013-02-04 02:29:00,59.3,32.9,29.89,SSW,203,8.7,8.7,37,0.00,,,0.00,WUHU216HW,2013-02-04 08:29:00,
2013-02-04 02:34:00,59.3,33.6,29.89,SSW,203,7.1,8.7,38,0.00,,,0.00,WUHU216HW,2013-02-04 08:34:00,
2013-02-04 02:39:00,59.1,34.1,29.89,SSW,203,6.4,8.7,39,0.00,,,0.00,WUHU216HW,2013-02-04 08:39:00,
2013-02-04 02:44:00,59.0,33.9,29.89,SSE,158,0.0,7.8,39,0.00,,,0.00,WUHU216HW,2013-02-04 08:44:00,
2013-02-04 02:49:00,59.0,33.9,29.90,South,180,6.9,6.9,39,0.00,,,0.00,WUHU216HW,2013-02-04 08:49:00,
2013-02-04 02:54:00,59.0,34.8,29.89,SSE,158,2.9,8.7,40,0.00,,,0.00,WUHU216HW,2013-02-04 08:54:00,
2013-02-04 02:59:00,59.1,34.8,29.89,South,180,1.5,8.7,40,0.00,,,0.00,WUHU216HW,2013-02-04 08:59:00,
2013-02-04 03:04:00,59.1,35.4,29.90,South,180,0.0,2.9,41,0.00,,,0.00,WUHU216HW,2013-02-04 09:04:00,
2013-02-04 03:09:00,59.0,35.4,29.90,South,180,0.0,6.9,41,0.00,,,0.00,WUHU216HW,2013-02-04 09:09:00,
2013-02-04 03:14:00,59.1,35.4,29.90,South,180,4.2,6.9,41,0.00,,,0.00,WUHU216HW,2013-02-04 09:14:00,
2013-02-04 03:19:00,58.8,35.6,29.90,South,180,0.0,5.3,42,0.00,,,0.00,WUHU216HW,2013-02-04 09:19:00,
2013-02-04 03:24:00,58.8,35.6,29.89,South,180,8.0,8.0,42,0.00,,,0.00,WUHU216HW,2013-02-04 09:24:00,
2013-02-04 03:29:00,58.8,36.2,29.89,SSE,158,0.6,8.0,43,0.00,,,0.00,WUHU216HW,2013-02-04 09:29:00,
2013-02-04 03:34:00,58.8,36.2,29.89,South,180,0.0,8.0,43,0.00,,,0.00,WUHU216HW,2013-02-04 09:34:00,
2013-02-04 03:39:00,58.8,36.2,29.89,SSE,158,0.0,2.2,43,0.00,,,0.00,WUHU216HW,2013-02-04 09:39:00,
2013-02-04 03:44:00,58.8,36.8,29.89,SSW,203,0.0,2.2,44,0.00,,,0.00,WUHU216HW,2013-02-04 09:44:00,
2013-02-04 03:49:00,58.8,36.8,29.89,South,180,6.4,6.4,44,0.00,,,0.00,WUHU216HW,2013-02-04 09:49:00,
2013-02-04 03:54:00,58.8,37.4,29.89,South,180,0.0,6.4,45,0.00,,,0.00,WUHU216HW,2013-02-04 09:54:00,
2013-02-04 03:59:00,58.8,37.4,29.88,South,180,2.2,6.4,45,0.00,,,0.00,WUHU216HW,2013-02-04 09:59:00,
2013-02-04 04:04:00,58.8,37.9,29.88,SE,135,0.0,6.4,46,0.00,,,0.00,WUHU216HW,2013-02-04 10:04:00,
2013-02-04 04:09:00,58.8,38.5,29.88,SSE,158,9.1,9.1,47,0.00,,,0.00,WUHU216HW,2013-02-04 10:09:00,
2013-02-04 04:14:00,58.8,38.5,29.88,SSE,158,0.6,9.1,47,0.00,,,0.00,WUHU216HW,2013-02-04 10:14:00,
2013-02-04 04:19:00,58.8,39.1,29.87,South,180,4.0,9.1,48,0.00,,,0.00,WUHU216HW,2013-02-04 10:19:00,
2013-02-04 04:24:00,58.8,39.7,29.87,South,180,3.8,7.3,49,0.00,,,0.00,WUHU216HW,2013-02-04 10:24:00,
2013-02-04 04:29:00,58.8,39.7,29.87,SE,135,0.0,6.4,49,0.00,,,0.00,WUHU216HW,2013-02-04 10:29:00,
2013-02-04 04:34:00,58.8,40.2,29.87,South,180,8.2,8.7,50,0.00,,,0.00,WUHU216HW,2013-02-04 10:34:00,
2013-02-04 04:39:00,58.8,40.7,29.87,SSW,203,6.9,8.7,51,0.00,,,0.00,WUHU216HW,2013-02-04 10:39:00,
2013-02-04 04:44:00,58.8,40.7,29.87,SSW,203,2.0,8.2,51,0.00,,,0.00,WUHU216HW,2013-02-04 10:44:00,
2013-02-04 04:49:00,58.8,40.7,29.87,South,180,6.4,8.2,51,0.00,,,0.00,WUHU216HW,2013-02-04 10:49:00,
2013-02-04 04:54:00,58.6,40.6,29.87,SSE,158,6.4,6.4,51,0.00,,,0.00,WUHU216HW,2013-02-04 10:54:00,
2013-02-04 05:00:00,58.6,40.6,29.87,SSE,158,0.0,6.4,51,0.00,,,0.00,WUHU216HW,2013-02-04 11:00:00,
2013-02-04 05:05:00,58.8,41.2,29.87,SE,135,0.0,6.9,52,0.00,,,0.00,WUHU216HW,2013-02-04 11:05:00,
2013-02-04 05:10:00,58.8,41.2,29.86,SSW,203,7.6,7.6,52,0.00,,,0.00,WUHU216HW,2013-02-04 11:10:00,
2013-02-04 05:15:00,58.6,41.0,29.87,South,180,0.0,7.6,52,0.00,,,0.00,WUHU216HW,2013-02-04 11:15:00,
2013-02-04 05:20:00,58.6,41.5,29.87,South,180,7.3,7.3,53,0.00,,,0.00,WUHU216HW,2013-02-04 11:20:00,
2013-02-04 05:25:00,58.4,41.3,29.87,South,180,6.9,7.3,53,0.00,,,0.00,WUHU216HW,2013-02-04 11:25:00,
2013-02-04 05:30:00,58.2,41.2,29.87,South,180,0.0,7.3,53,0.00,,,0.00,WUHU216HW,2013-02-04 11:30:00,
2013-02-04 05:35:00,58.2,41.6,29.87,South,180,0.0,7.1,54,0.00,,,0.00,WUHU216HW,2013-02-04 11:35:00,
2013-02-04 05:40:00,58.2,41.6,29.87,South,180,8.2,8.2,54,0.00,,,0.00,WUHU216HW,2013-02-04 11:40:00,
2013-02-04 05:45:00,58.2,41.6,29.87,South,180,6.4,8.2,54,0.00,,,0.00,WUHU216HW,2013-02-04 11:45:00,
2013-02-04 05:50:00,58.2,41.6,29.87,South,180,5.3,6.9,54,0.00,,,0.00,WUHU216HW,2013-02-04 11:50:00,
2013-02-04 05:55:00,58.2,42.1,29.87,South,180,1.7,6.9,55,0.00,,,0.00,WUHU216HW,2013-02-04 11:55:00,
2013-02-04 06:00:00,58.2,42.1,29.87,SSW,203,0.0,5.3,55,0.00,,,0.00,WUHU216HW,2013-02-04 12:00:00,
2013-02-04 06:05:00,58.2,42.6,29.86,SSE,158,8.2,8.2,56,0.00,,,0.00,WUHU216HW,2013-02-04 12:05:00,
2013-02-04 06:10:00,58.2,42.6,29.86,SSE,158,9.3,9.3,56,0.00,,,0.00,WUHU216HW,2013-02-04 12:10:00,
2013-02-04 06:15:00,58.2,42.6,29.86,SSE,158,6.2,9.3,56,0.00,,,0.00,WUHU216HW,2013-02-04 12:15:00,
2013-02-04 06:20:00,58.1,42.9,29.86,SSE,158,0.8,6.4,57,0.00,,,0.00,WUHU216HW,2013-02-04 12:20:00,
2013-02-04 06:25:00,57.9,43.2,29.86,South,180,0.0,6.4,58,0.00,,,0.00,WUHU216HW,2013-02-04 12:25:00,
2013-02-04 06:30:00,57.9,43.7,29.86,South,180,7.6,7.6,59,0.00,,,0.00,WUHU216HW,2013-02-04 12:30:00,
2013-02-04 06:35:00,57.9,43.2,29.87,South,180,3.8,7.6,58,0.00,,,0.00,WUHU216HW,2013-02-04 12:35:00,
2013-02-04 06:40:00,57.9,43.2,29.86,SSE,158,0.0,7.6,58,0.00,,,0.00,WUHU216HW,2013-02-04 12:40:00,
2013-02-04 06:45:00,57.9,43.7,29.87,SSE,158,0.0,6.7,59,0.00,,,0.00,WUHU216HW,2013-02-04 12:45:00,
2013-02-04 06:50:00,57.9,43.7,29.87,South,180,1.5,6.7,59,0.00,,,0.00,WUHU216HW,2013-02-04 12:50:00,
2013-02-04 06:55:00,57.9,43.7,29.87,South,180,0.0,6.9,59,0.00,,,0.00,WUHU216HW,2013-02-04 12:55:00,
2013-02-04 07:01:00,57.7,44.0,29.87,South,180,7.8,9.6,60,0.00,,,0.00,WUHU216HW,2013-02-04 13:01:00,
2013-02-04 07:06:00,57.7,44.4,29.87,SSE,158,6.0,9.6,61,0.00,,,0.00,WUHU216HW,2013-02-04 13:06:00,
2013-02-04 07:11:00,57.7,44.7,29.87,SSW,203,0.0,7.3,62,0.00,,,0.00,WUHU216HW,2013-02-04 13:11:00,
2013-02-04 07:16:00,57.5,45.0,29.87,South,180,6.2,7.3,63,0.00,,,0.00,WUHU216HW,2013-02-04 13:16:00,
2013-02-04 07:21:00,57.3,44.8,29.87,SSE,158,0.0,6.2,63,0.00,,,0.00,WUHU216HW,2013-02-04 13:21:00,
2013-02-04 07:26:00,57.2,45.1,29.87,SSE,158,6.4,6.4,64,0.00,,,0.00,WUHU216HW,2013-02-04 13:26:00,
2013-02-04 07:31:00,57.0,45.3,29.87,SSE,158,4.2,6.4,65,0.00,,,0.00,WUHU216HW,2013-02-04 13:31:00,
2013-02-04 07:36:00,57.0,45.7,29.86,SSW,203,6.7,7.8,66,0.00,,,0.00,WUHU216HW,2013-02-04 13:36:00,
2013-02-04 07:41:00,56.8,46.7,29.86,SSE,158,5.3,7.8,69,0.00,,,0.00,WUHU216HW,2013-02-04 13:41:00,
2013-02-04 07:46:00,56.8,46.7,29.86,South,180,7.3,7.8,69,0.00,,,0.00,WUHU216HW,2013-02-04 13:46:00,
2013-02-04 07:51:00,56.6,46.9,29.86,SSE,158,8.0,8.0,70,0.00,,,0.00,WUHU216HW,2013-02-04 13:51:00,
2013-02-04 07:56:00,56.8,47.4,29.86,SSE,158,4.0,8.0,71,0.00,,,0.00,WUHU216HW,2013-02-04 13:56:00,
2013-02-04 08:01:00,56.8,48.2,29.86,South,180,0.0,4.0,73,0.00,,,0.00,WUHU216HW,2013-02-04 14:01:00,
2013-02-04 08:06:00,56.8,48.2,29.86,South,180,4.2,6.4,73,0.00,,,0.00,WUHU216HW,2013-02-04 14:06:00,
2013-02-04 08:11:00,56.8,48.5,29.86,SSW,203,7.1,7.1,74,0.00,,,0.00,WUHU216HW,2013-02-04 14:11:00,
2013-02-04 08:16:00,56.8,48.5,29.87,SSE,158,3.3,7.3,74,0.00,,,0.00,WUHU216HW,2013-02-04 14:16:00,
2013-02-04 08:21:00,56.8,48.9,29.86,South,180,0.0,9.1,75,0.00,,,0.00,WUHU216HW,2013-02-04 14:21:00,
2013-02-04 08:26:00,57.0,49.4,29.86,South,180,4.2,9.1,76,0.00,,,0.00,WUHU216HW,2013-02-04 14:26:00,
2013-02-04 08:31:00,57.0,49.1,29.86,SSE,158,6.4,8.7,75,0.00,,,0.00,WUHU216HW,2013-02-04 14:31:00,
2013-02-04 08:36:00,57.0,49.4,29.86,SSW,203,4.4,6.4,76,0.00,,,0.00,WUHU216HW,2013-02-04 14:36:00,
2013-02-04 08:41:00,57.3,49.8,29.85,SSW,203,5.5,8.5,76,0.00,,,0.00,WUHU216HW,2013-02-04 14:41:00,
2013-02-04 08:46:00,57.3,49.8,29.86,SSW,203,8.0,8.5,76,0.00,,,0.00,WUHU216HW,2013-02-04 14:46:00,
2013-02-04 08:52:00,57.3,49.8,29.86,SE,135,0.0,8.0,76,0.00,,,0.00,WUHU216HW,2013-02-04 14:52:00,
2013-02-04 08:57:00,57.5,50.3,29.86,SSE,158,4.9,6.7,77,0.00,,,0.00,WUHU216HW,2013-02-04 14:57:00,
2013-02-04 09:02:00,57.7,50.5,29.86,SSW,203,6.0,9.1,77,0.00,,,0.00,WUHU216HW,2013-02-04 15:02:00,
2013-02-04 09:07:00,57.9,50.7,29.86,South,180,6.2,9.1,77,0.00,,,0.00,WUHU216HW,2013-02-04 15:07:00,
2013-02-04 09:12:00,57.9,50.7,29.86,SSW,203,0.0,6.2,77,0.00,,,0.00,WUHU216HW,2013-02-04 15:12:00,
2013-02-04 09:17:00,58.2,51.0,29.86,SSW,203,0.0,6.2,77,0.00,,,0.00,WUHU216HW,2013-02-04 15:17:00,
2013-02-04 09:22:00,58.2,51.0,29.86,South,180,4.9,7.1,77,0.00,,,0.00,WUHU216HW,2013-02-04 15:22:00,
2013-02-04 09:27:00,58.4,51.2,29.86,SE,135,7.1,7.1,77,0.00,,,0.00,WUHU216HW,2013-02-04 15:27:00,
2013-02-04 09:32:00,58.6,51.4,29.86,South,180,5.5,7.1,77,0.00,,,0.00,WUHU216HW,2013-02-04 15:32:00,
2013-02-04 09:37:00,58.6,51.4,29.86,South,180,7.8,7.8,77,0.00,,,0.00,WUHU216HW,2013-02-04 15:37:00,
2013-02-04 09:42:00,58.6,51.0,29.86,SSW,203,7.1,7.8,76,0.00,,,0.00,WUHU216HW,2013-02-04 15:42:00,
2013-02-04 09:47:00,58.8,51.2,29.86,South,180,0.0,7.8,76,0.00,,,0.00,WUHU216HW,2013-02-04 15:47:00,
2013-02-04 09:52:00,59.3,51.8,29.86,SSE,158,0.0,6.9,76,0.00,,,0.00,WUHU216HW,2013-02-04 15:52:00,
2013-02-04 09:57:00,59.7,51.8,29.87,South,180,7.1,8.0,75,0.00,,,0.00,WUHU216HW,2013-02-04 15:57:00,
2013-02-04 10:02:00,59.9,51.9,29.87,South,180,6.7,8.0,75,0.00,,,0.00,WUHU216HW,2013-02-04 16:02:00,
2013-02-04 10:07:00,59.7,51.8,29.87,SSE,158,6.4,7.6,75,0.00,,,0.00,WUHU216HW,2013-02-04 16:07:00,
2013-02-04 10:12:00,59.7,51.8,29.87,South,180,5.3,7.6,75,0.00,,,0.00,WUHU216HW,2013-02-04 16:12:00,
2013-02-04 10:17:00,60.0,52.1,29.87,South,180,2.9,6.7,75,0.00,,,0.00,WUHU216HW,2013-02-04 16:17:00,
2013-02-04 10:22:00,60.6,52.3,29.86,South,180,3.3,6.7,74,0.00,,,0.00,WUHU216HW,2013-02-04 16:22:00,
2013-02-04 10:27:00,61.5,52.8,29.86,South,180,8.7,8.7,73,0.00,,,0.00,WUHU216HW,2013-02-04 16:27:00,
2013-02-04 10:32:00,61.5,52.8,29.86,WSW,248,0.0,10.0,73,0.00,,,0.00,WUHU216HW,2013-02-04 16:32:00,
2013-02-04 10:37:00,61.5,52.4,29.86,SE,135,4.0,10.0,72,0.00,,,0.00,WUHU216HW,2013-02-04 16:37:00,
2013-02-04 10:42:00,61.8,52.7,29.85,South,180,0.0,4.0,72,0.00,,,0.00,WUHU216HW,2013-02-04 16:42:00,
2013-02-04 10:47:00,62.2,52.7,29.86,South,180,0.0,6.9,71,0.00,,,0.00,WUHU216HW,2013-02-04 16:47:00,
2013-02-04 10:52:00,62.2,52.7,29.85,SSW,203,9.1,9.1,71,0.00,,,0.00,WUHU216HW,2013-02-04 16:52:00,
2013-02-04 10:57:00,62.2,52.7,29.85,South,180,0.0,9.1,71,0.00,,,0.00,WUHU216HW,2013-02-04 16:57:00,
2013-02-04 11:02:00,62.4,53.2,29.85,SSE,158,8.0,9.1,72,0.00,,,0.00,WUHU216HW,2013-02-04 17:02:00,
2013-02-04 11:07:00,63.1,53.6,29.84,SSW,203,0.0,8.0,71,0.00,,,0.00,WUHU216HW,2013-02-04 17:07:00,
2013-02-04 11:12:00,63.3,53.4,29.84,SSE,158,1.1,8.0,70,0.00,,,0.00,WUHU216HW,2013-02-04 17:12:00,
2013-02-04 11:17:00,63.6,53.7,29.84,South,180,7.3,7.3,70,0.00,,,0.00,WUHU216HW,2013-02-04 17:17:00,
2013-02-04 11:22:00,63.8,53.9,29.84,SSE,158,7.6,7.6,70,0.00,,,0.00,WUHU216HW,2013-02-04 17:22:00,
2013-02-04 11:27:00,64.2,54.3,29.84,SW,225,10.9,10.9,70,0.00,,,0.00,WUHU216HW,2013-02-04 17:27:00,
2013-02-04 11:32:00,64.9,54.5,29.84,South,180,0.0,10.9,69,0.00,,,0.00,WUHU216HW,2013-02-04 17:32:00,
2013-02-04 11:37:00,65.4,54.6,29.84,SSE,158,6.2,6.4,68,0.00,,,0.00,WUHU216HW,2013-02-04 17:37:00,
2013-02-04 11:42:00,65.3,54.4,29.83,SSE,158,1.7,6.2,68,0.00,,,0.00,WUHU216HW,2013-02-04 17:42:00,
2013-02-04 11:47:00,65.6,54.7,29.84,South,180,7.1,7.1,68,0.00,,,0.00,WUHU216HW,2013-02-04 17:47:00,
2013-02-04 11:52:00,65.4,54.1,29.83,South,180,0.0,7.1,67,0.00,,,0.00,WUHU216HW,2013-02-04 17:52:00,
2013-02-04 11:57:00,65.1,54.2,29.83,SE,135,4.9,7.1,68,0.00,,,0.00,WUHU216HW,2013-02-04 17:57:00,
2013-02-04 12:03:00,65.4,54.6,29.83,South,180,0.0,4.9,68,0.00,,,0.00,WUHU216HW,2013-02-04 18:03:00,
2013-02-04 12:08:00,66.0,55.1,29.83,SSW,203,0.0,2.6,68,0.00,,,0.00,WUHU216HW,2013-02-04 18:08:00,
2013-02-04 12:13:00,66.0,54.6,29.82,SW,225,9.6,9.6,67,0.00,,,0.00,WUHU216HW,2013-02-04 18:13:00,
2013-02-04 12:18:00,66.0,54.6,29.82,SW,225,0.0,9.6,67,0.00,,,0.00,WUHU216HW,2013-02-04 18:18:00,
2013-02-04 12:23:00,66.7,54.9,29.82,WSW,248,0.0,9.6,66,0.00,,,0.00,WUHU216HW,2013-02-04 18:23:00,
2013-02-04 12:28:00,67.2,55.0,29.82,West,270,0.0,6.9,65,0.00,,,0.00,WUHU216HW,2013-02-04 18:28:00,
2013-02-04 12:33:00,67.6,54.9,29.81,South,180,0.0,6.2,64,0.00,,,0.00,WUHU216HW,2013-02-04 18:33:00,
2013-02-04 12:38:00,67.8,55.1,29.81,SSE,158,0.0,6.2,64,0.00,,,0.00,WUHU216HW,2013-02-04 18:38:00,
2013-02-04 12:43:00,67.2,54.6,29.81,South,180,0.0,0.0,64,0.00,,,0.00,WUHU216HW,2013-02-04 18:43:00,
2013-02-04 12:48:00,68.1,55.4,29.81,WSW,248,0.8,0.8,64,0.00,,,0.00,WUHU216HW,2013-02-04 18:48:00,
2013-02-04 12:53:00,68.1,55.4,29.80,South,180,3.8,3.8,64,0.00,,,0.00,WUHU216HW,2013-02-04 18:53:00,
2013-02-04 12:58:00,68.5,55.4,29.80,South,180,0.0,3.8,63,0.00,,,0.00,WUHU216HW,2013-02-04 18:58:00,
2013-02-04 13:03:00,69.0,55.5,29.79,South,180,0.0,3.8,62,0.00,,,0.00,WUHU216HW,2013-02-04 19:03:00,
2013-02-04 13:08:00,69.4,55.8,29.80,WSW,248,0.0,0.0,62,0.00,,,0.00,WUHU216HW,2013-02-04 19:08:00,
2013-02-04 13:13:00,69.2,55.2,29.79,SSW,203,0.0,0.0,61,0.00,,,0.00,WUHU216HW,2013-02-04 19:13:00,
2013-02-04 13:18:00,69.6,55.6,29.79,WSW,248,0.0,0.0,61,0.00,,,0.00,WUHU216HW,2013-02-04 19:18:00,
2013-02-04 13:23:00,70.3,55.8,29.79,SSW,203,6.7,7.6,60,0.00,,,0.00,WUHU216HW,2013-02-04 19:23:00,
2013-02-04 13:28:00,70.3,55.3,29.78,SSE,158,0.0,7.6,59,0.00,,,0.00,WUHU216HW,2013-02-04 19:28:00,
2013-02-04 13:33:00,70.7,55.7,29.77,South,180,0.0,4.4,59,0.00,,,0.00,WUHU216HW,2013-02-04 19:33:00,
2013-02-04 13:38:00,71.4,56.3,29.77,South,180,0.0,4.4,59,0.00,,,0.00,WUHU216HW,2013-02-04 19:38:00,
2013-02-04 13:43:00,70.7,55.2,29.77,SW,225,0.0,0.0,58,0.00,,,0.00,WUHU216HW,2013-02-04 19:43:00,
2013-02-04 13:48:00,70.8,55.8,29.78,SW,225,0.0,0.0,59,0.00,,,0.00,WUHU216HW,2013-02-04 19:48:00,
2013-02-04 13:53:00,71.0,56.0,29.77,South,180,0.0,2.4,59,0.00,,,0.00,WUHU216HW,2013-02-04 19:53:00,
2013-02-04 13:58:00,70.7,55.7,29.77,SSE,158,0.0,6.2,59,0.00,,,0.00,WUHU216HW,2013-02-04 19:58:00,
2013-02-04 14:03:00,71.0,56.0,29.76,SE,135,0.0,6.2,59,0.00,,,0.00,WUHU216HW,2013-02-04 20:03:00,
2013-02-04 14:08:00,71.6,56.0,29.76,SSE,158,3.3,3.3,58,0.00,,,0.00,WUHU216HW,2013-02-04 20:08:00,
2013-02-04 14:13:00,71.4,55.8,29.76,SSW,203,0.0,3.3,58,0.00,,,0.00,WUHU216HW,2013-02-04 20:13:00,
2013-02-04 14:18:00,71.4,55.8,29.76,SSW,203,0.0,0.0,58,0.00,,,0.00,WUHU216HW,2013-02-04 20:18:00,
2013-02-04 14:23:00,72.3,56.1,29.76,South,180,0.0,0.0,57,0.00,,,0.00,WUHU216HW,2013-02-04 20:23:00,
2013-02-04 14:28:00,74.1,56.3,29.75,SE,135,0.0,8.0,54,0.00,,,0.00,WUHU216HW,2013-02-04 20:28:00,
2013-02-04 14:33:00,73.9,55.6,29.75,South,180,6.0,8.0,53,0.00,,,0.00,WUHU216HW,2013-02-04 20:33:00,
2013-02-04 14:38:00,73.2,55.4,29.75,SSE,158,0.4,6.0,54,0.00,,,0.00,WUHU216HW,2013-02-04 20:38:00,
2013-02-04 14:43:00,73.2,55.9,29.75,ESE,113,0.0,0.4,55,0.00,,,0.00,WUHU216HW,2013-02-04 20:43:00,
2013-02-04 14:48:00,73.5,55.7,29.75,SSE,158,0.0,7.8,54,0.00,,,0.00,WUHU216HW,2013-02-04 20:48:00,
2013-02-04 14:53:00,74.3,56.3,29.74,ESE,113,0.0,9.1,53,0.00,,,0.00,WUHU216HW,2013-02-04 20:53:00,
2013-02-04 14:58:00,74.3,56.0,29.74,SSE,158,5.8,9.1,53,0.00,,,0.00,WUHU216HW,2013-02-04 20:58:00,
2013-02-04 15:03:00,74.4,56.1,29.74,SSE,158,6.2,7.8,53,0.00,,,0.00,WUHU216HW,2013-02-04 21:03:00,
2013-02-04 15:08:00,74.1,55.3,29.74,SE,135,1.5,6.2,52,0.00,,,0.00,WUHU216HW,2013-02-04 21:08:00,
2013-02-04 15:13:00,74.3,55.5,29.74,SE,135,6.2,7.8,52,0.00,,,0.00,WUHU216HW,2013-02-04 21:13:00,
2013-02-04 15:18:00,75.0,56.2,29.74,SE,135,0.0,7.8,52,0.00,,,0.00,WUHU216HW,2013-02-04 21:18:00,
2013-02-04 15:23:00,75.3,56.2,29.74,South,180,0.0,6.2,51,0.00,,,0.00,WUHU216HW,2013-02-04 21:23:00,
2013-02-04 15:28:00,75.5,56.2,29.74,East,90,7.1,7.1,51,0.00,,,0.00,WUHU216HW,2013-02-04 21:28:00,
2013-02-04 15:33:00,75.5,56.2,29.74,SSE,158,0.0,7.1,51,0.00,,,0.00,WUHU216HW,2013-02-04 21:33:00,
2013-02-04 15:38:00,74.8,56.2,29.74,SE,135,1.1,7.1,52,0.00,,,0.00,WUHU216HW,2013-02-04 21:38:00,
2013-02-04 15:43:00,74.4,55.6,29.74,SSE,158,1.3,3.3,52,0.00,,,0.00,WUHU216HW,2013-02-04 21:43:00,
2013-02-04 15:49:00,74.1,55.8,29.74,ESE,113,0.0,1.3,53,0.00,,,0.00,WUHU216HW,2013-02-04 21:49:00,
2013-02-04 15:54:00,74.1,55.6,29.74,ESE,113,0.0,1.3,53,0.00,,,0.00,WUHU216HW,2013-02-04 21:54:00,
2013-02-04 15:59:00,73.9,55.6,29.74,East,90,0.0,0.0,53,0.00,,,0.00,WUHU216HW,2013-02-04 21:59:00,
2013-02-04 16:04:00,73.5,55.2,29.75,East,90,2.0,2.0,53,0.00,,,0.00,WUHU216HW,2013-02-04 22:04:00,
2013-02-04 16:09:00,73.0,55.2,29.76,ENE,68,0.0,2.0,54,0.00,,,0.00,WUHU216HW,2013-02-04 22:09:00,
2013-02-04 16:14:00,72.6,54.9,29.75,SSE,158,0.0,2.0,54,0.00,,,0.00,WUHU216HW,2013-02-04 22:14:00,
2013-02-04 16:19:00,72.6,54.9,29.75,East,90,0.8,0.8,54,0.00,,,0.00,WUHU216HW,2013-02-04 22:19:00,
2013-02-04 16:24:00,73.0,55.2,29.75,SE,135,0.0,0.8,54,0.00,,,0.00,WUHU216HW,2013-02-04 22:24:00,
2013-02-04 16:29:00,73.0,55.2,29.74,SE,135,0.0,0.8,54,0.00,,,0.00,WUHU216HW,2013-02-04 22:29:00,
2013-02-04 16:34:00,73.0,55.2,29.75,SE,135,0.0,5.5,54,0.00,,,0.00,WUHU216HW,2013-02-04 22:34:00,
2013-02-04 16:39:00,72.5,54.8,29.75,SE,135,0.0,5.5,54,0.00,,,0.00,WUHU216HW,2013-02-04 22:39:00,
2013-02-04 16:44:00,72.3,55.1,29.75,ESE,113,0.0,4.2,55,0.00,,,0.00,WUHU216HW,2013-02-04 22:44:00,
2013-02-04 16:49:00,72.3,55.1,29.74,SSE,158,0.0,4.2,55,0.00,,,0.00,WUHU216HW,2013-02-04 22:49:00,
2013-02-04 16:54:00,72.6,54.9,29.74,SSE,158,0.0,4.2,54,0.00,,,0.00,WUHU216HW,2013-02-04 22:54:00,
2013-02-04 16:59:00,72.5,55.3,29.75,SE,135,0.0,4.2,55,0.00,,,0.00,WUHU216HW,2013-02-04 22:59:00,
2013-02-04 17:05:00,72.1,54.9,29.74,SSE,158,0.0,0.8,55,0.00,,,0.00,WUHU216HW,2013-02-04 23:05:00,
2013-02-04 17:10:00,72.3,55.1,29.74,SSE,158,2.0,2.0,55,0.00,,,0.00,WUHU216HW,2013-02-04 23:10:00,
2013-02-04 17:15:00,72.5,55.3,29.74,SE,135,0.0,2.0,55,0.00,,,0.00,WUHU216HW,2013-02-04 23:15:00,
2013-02-04 17:20:00,72.5,55.3,29.74,SE,135,0.0,4.4,55,0.00,,,0.00,WUHU216HW,2013-02-04 23:20:00,
2013-02-04 17:25:00,72.3,55.1,29.75,SE,135,0.0,4.4,55,0.00,,,0.00,WUHU216HW,2013-02-04 23:25:00,
2013-02-04 17:30:00,72.3,55.1,29.75,ESE,113,0.0,0.0,55,0.00,,,0.00,WUHU216HW,2013-02-04 23:30:00,
2013-02-04 17:35:00,71.7,55.1,29.76,SE,135,0.0,0.0,56,0.00,,,0.00,WUHU216HW,2013-02-04 23:35:00,
2013-02-04 17:40:00,71.7,55.1,29.76,SSE,158,2.0,2.0,56,0.00,,,0.00,WUHU216HW,2013-02-04 23:40:00,
2013-02-04 17:45:00,71.4,55.3,29.76,ESE,113,0.0,2.0,57,0.00,,,0.00,WUHU216HW,2013-02-04 23:45:00,
2013-02-04 17:50:00,71.2,55.1,29.76,ESE,113,0.0,2.0,57,0.00,,,0.00,WUHU216HW,2013-02-04 23:50:00,
2013-02-04 17:55:00,71.2,55.3,29.76,East,90,0.0,0.0,57,0.00,,,0.00,WUHU216HW,2013-02-04 23:55:00,
2013-02-04 18:00:00,70.7,55.2,29.76,SSE,158,0.0,0.0,58,0.00,,,0.00,WUHU216HW,2013-02-05 00:00:00,
2013-02-04 18:05:00,70.5,55.0,29.76,SE,135,0.0,0.0,58,0.00,,,0.00,WUHU216HW,2013-02-05 00:05:00,
2013-02-04 18:10:00,70.1,55.2,29.76,ESE,113,0.0,0.0,59,0.00,,,0.00,WUHU216HW,2013-02-05 00:10:00,
2013-02-04 18:15:00,69.9,55.0,29.76,ESE,113,0.0,0.0,59,0.00,,,0.00,WUHU216HW,2013-02-05 00:15:00,
2013-02-04 18:20:00,69.8,54.8,29.76,ESE,113,0.0,0.0,59,0.00,,,0.00,WUHU216HW,2013-02-05 00:20:00,
2013-02-04 18:25:00,69.6,54.7,29.77,East,90,0.0,0.0,59,0.00,,,0.00,WUHU216HW,2013-02-05 00:25:00,
2013-02-04 18:30:00,69.4,54.5,29.77,East,90,0.0,0.0,59,0.00,,,0.00,WUHU216HW,2013-02-05 00:30:00,
2013-02-04 18:35:00,69.2,54.8,29.77,ESE,113,0.0,0.0,60,0.00,,,0.00,WUHU216HW,2013-02-05 00:35:00,
2013-02-04 18:40:00,68.9,54.5,29.78,ESE,113,0.0,0.0,60,0.00,,,0.00,WUHU216HW,2013-02-05 00:40:00,
2013-02-04 18:45:00,68.7,54.3,29.78,ESE,113,0.0,0.0,60,0.00,,,0.00,WUHU216HW,2013-02-05 00:45:00,
2013-02-04 18:50:00,68.7,54.7,29.78,East,90,0.0,0.0,61,0.00,,,0.00,WUHU216HW,2013-02-05 00:50:00,
2013-02-04 18:55:00,68.5,54.5,29.78,ESE,113,0.0,0.0,61,0.00,,,0.00,WUHU216HW,2013-02-05 00:55:00,
2013-02-04 19:00:00,68.5,54.5,29.79,ESE,113,0.0,0.0,61,0.00,,,0.00,WUHU216HW,2013-02-05 01:00:00,
2013-02-04 19:05:00,68.3,54.3,29.79,ESE,113,0.0,0.0,61,0.00,,,0.00,WUHU216HW,2013-02-05 01:05:00,
2013-02-04 19:10:00,68.1,54.6,29.78,ESE,113,0.0,0.0,62,0.00,,,0.00,WUHU216HW,2013-02-05 01:10:00,
2013-02-04 19:15:00,68.1,54.6,29.78,ESE,113,0.0,0.0,62,0.00,,,0.00,WUHU216HW,2013-02-05 01:15:00,
2013-02-04 19:20:00,68.0,54.4,29.79,ESE,113,0.0,0.0,62,0.00,,,0.00,WUHU216HW,2013-02-05 01:20:00,
2013-02-04 19:25:00,67.8,54.2,29.79,ESE,113,0.0,0.0,62,0.00,,,0.00,WUHU216HW,2013-02-05 01:25:00,
2013-02-04 19:30:00,67.6,54.5,29.79,ESE,113,0.0,0.0,63,0.00,,,0.00,WUHU216HW,2013-02-05 01:30:00,
2013-02-04 19:35:00,67.6,54.5,29.79,ESE,113,0.0,0.0,63,0.00,,,0.00,WUHU216HW,2013-02-05 01:35:00,
2013-02-04 19:40:00,67.2,54.2,29.80,East,90,0.0,0.0,63,0.00,,,0.00,WUHU216HW,2013-02-05 01:40:00,
2013-02-04 19:46:00,67.2,54.2,29.80,ESE,113,0.0,0.0,63,0.00,,,0.00,WUHU216HW,2013-02-05 01:46:00,
2013-02-04 19:51:00,67.2,54.2,29.80,ESE,113,0.0,0.0,63,0.00,,,0.00,WUHU216HW,2013-02-05 01:51:00,
2013-02-04 19:56:00,67.1,54.4,29.80,ESE,113,0.0,0.0,64,0.00,,,0.00,WUHU216HW,2013-02-05 01:56:00,
2013-02-04 20:01:00,67.1,54.4,29.80,ESE,113,0.0,0.0,64,0.00,,,0.00,WUHU216HW,2013-02-05 02:01:00,
2013-02-04 20:06:00,66.9,54.7,29.81,SE,135,0.0,0.0,65,0.00,,,0.00,WUHU216HW,2013-02-05 02:06:00,
2013-02-04 20:11:00,66.9,54.7,29.81,East,90,0.0,0.0,65,0.00,,,0.00,WUHU216HW,2013-02-05 02:11:00,
2013-02-04 20:16:00,66.9,54.7,29.80,SSE,158,0.0,0.0,65,0.00,,,0.00,WUHU216HW,2013-02-05 02:16:00,
2013-02-04 20:21:00,66.7,54.5,29.81,ESE,113,0.0,0.0,65,0.00,,,0.00,WUHU216HW,2013-02-05 02:21:00,
2013-02-04 20:26:00,66.7,54.9,29.81,ENE,68,0.0,0.0,66,0.00,,,0.00,WUHU216HW,2013-02-05 02:26:00,
2013-02-04 20:31:00,66.5,54.8,29.81,SSE,158,0.0,0.0,66,0.00,,,0.00,WUHU216HW,2013-02-05 02:31:00,
2013-02-04 20:36:00,66.5,54.8,29.81,SE,135,0.0,0.0,66,0.00,,,0.00,WUHU216HW,2013-02-05 02:36:00,
2013-02-04 20:41:00,66.3,54.6,29.81,SSE,158,0.0,0.0,66,0.00,,,0.00,WUHU216HW,2013-02-05 02:41:00,
2013-02-04 20:46:00,66.3,55.0,29.81,SSE,158,0.0,0.0,67,0.00,,,0.00,WUHU216HW,2013-02-05 02:46:00,
2013-02-04 20:51:00,66.0,54.6,29.81,ESE,113,0.0,0.0,67,0.00,,,0.00,WUHU216HW,2013-02-05 02:51:00,
2013-02-04 20:56:00,66.0,54.6,29.81,East,90,0.0,0.0,67,0.00,,,0.00,WUHU216HW,2013-02-05 02:56:00,
2013-02-04 21:01:00,66.0,54.6,29.81,SSE,158,0.0,0.0,67,0.00,,,0.00,WUHU216HW,2013-02-05 03:01:00,
2013-02-04 21:06:00,65.8,54.9,29.82,SE,135,0.0,0.0,68,0.00,,,0.00,WUHU216HW,2013-02-05 03:06:00,
2013-02-04 21:11:00,65.8,55.3,29.82,SE,135,0.0,0.0,69,0.00,,,0.00,WUHU216HW,2013-02-05 03:11:00,
2013-02-04 21:16:00,65.6,55.2,29.82,South,180,0.0,0.0,69,0.00,,,0.00,WUHU216HW,2013-02-05 03:16:00,
2013-02-04 21:21:00,65.4,55.0,29.82,East,90,0.0,0.0,69,0.00,,,0.00,WUHU216HW,2013-02-05 03:21:00,
2013-02-04 21:26:00,65.4,55.0,29.82,ESE,113,0.0,0.0,69,0.00,,,0.00,WUHU216HW,2013-02-05 03:26:00,
2013-02-04 21:31:00,65.4,55.0,29.82,ESE,113,0.0,0.0,69,0.00,,,0.00,WUHU216HW,2013-02-05 03:31:00,
2013-02-04 21:37:00,65.4,55.0,29.82,ESE,113,0.0,0.0,69,0.00,,,0.00,WUHU216HW,2013-02-05 03:37:00,
2013-02-04 21:42:00,65.4,55.0,29.82,East,90,0.0,0.0,69,0.00,,,0.00,WUHU216HW,2013-02-05 03:42:00,
2013-02-04 21:47:00,65.8,54.9,29.82,ESE,113,0.0,0.0,68,0.00,,,0.00,WUHU216HW,2013-02-05 03:47:00,
2013-02-04 21:52:00,65.8,55.3,29.82,East,90,0.0,0.0,69,0.00,,,0.00,WUHU216HW,2013-02-05 03:52:00,
2013-02-04 21:57:00,66.0,55.5,29.82,East,90,0.0,0.0,69,0.00,,,0.00,WUHU216HW,2013-02-05 03:57:00,
2013-02-04 22:02:00,66.7,55.8,29.82,East,90,0.0,0.0,68,0.00,,,0.00,WUHU216HW,2013-02-05 04:02:00,
2013-02-04 22:07:00,66.5,55.6,29.83,East,90,0.0,0.0,68,0.00,,,0.00,WUHU216HW,2013-02-05 04:07:00,
2013-02-04 22:12:00,66.3,55.4,29.82,East,90,0.0,0.0,68,0.00,,,0.00,WUHU216HW,2013-02-05 04:12:00,
2013-02-04 22:17:00,66.3,55.4,29.82,ESE,113,0.0,0.0,68,0.00,,,0.00,WUHU216HW,2013-02-05 04:17:00,
2013-02-04 22:22:00,66.3,55.4,29.83,ESE,113,0.0,0.0,68,0.00,,,0.00,WUHU216HW,2013-02-05 04:22:00,
2013-02-04 22:27:00,66.2,55.2,29.83,ESE,113,0.0,0.0,68,0.00,,,0.00,WUHU216HW,2013-02-05 04:27:00,
2013-02-04 22:32:00,66.3,55.4,29.83,ESE,113,0.0,0.0,68,0.00,,,0.00,WUHU216HW,2013-02-05 04:32:00,
2013-02-04 22:37:00,66.5,55.2,29.83,ESE,113,0.0,0.0,67,0.00,,,0.00,WUHU216HW,2013-02-05 04:37:00,
2013-02-04 22:42:00,66.0,55.1,29.83,ESE,113,0.0,0.0,68,0.00,,,0.00,WUHU216HW,2013-02-05 04:42:00,
2013-02-04 22:47:00,65.8,54.9,29.83,ESE,113,0.0,0.0,68,0.00,,,0.00,WUHU216HW,2013-02-05 04:47:00,
2013-02-04 22:52:00,65.3,54.8,29.83,East,90,0.0,0.0,69,0.00,,,0.00,WUHU216HW,2013-02-05 04:52:00,
2013-02-04 22:57:00,65.1,54.7,29.84,East,90,0.0,0.0,69,0.00,,,0.00,WUHU216HW,2013-02-05 04:57:00,
2013-02-04 23:00:00,65.1,54.7,29.83,East,90,0.0,0.0,69,0.00,,,0.00,WUHU216HW,2013-02-05 05:00:00,
2013-02-04 23:01:00,65.1,55.1,29.84,East,90,0.0,0.0,70,0.00,,,0.00,WUHU216HW,2013-02-05 05:01:00,
2013-02-04 23:06:00,64.7,54.8,29.84,East,90,0.0,0.0,70,0.00,,,0.00,WUHU216HW,2013-02-05 05:06:00,
2013-02-04 23:11:00,64.5,54.6,29.84,East,90,0.0,0.0,70,0.00,,,0.00,WUHU216HW,2013-02-05 05:11:00,
2013-02-04 23:16:00,64.2,54.3,29.84,East,90,0.0,0.0,70,0.00,,,0.00,WUHU216HW,2013-02-05 05:16:00,
2013-02-04 23:21:00,64.2,54.6,29.84,East,90,0.0,0.0,71,0.00,,,0.00,WUHU216HW,2013-02-05 05:21:00,
2013-02-04 23:26:00,64.2,54.6,29.85,East,90,0.0,0.0,71,0.00,,,0.00,WUHU216HW,2013-02-05 05:26:00,
2013-02-04 23:31:00,64.5,54.6,29.84,ESE,113,0.0,0.0,70,0.00,,,0.00,WUHU216HW,2013-02-05 05:31:00,
2013-02-04 23:36:00,64.2,54.6,29.84,ESE,113,0.0,0.0,71,0.00,,,0.00,WUHU216HW,2013-02-05 05:36:00,
2013-02-04 23:41:00,64.0,54.8,29.84,East,90,0.0,0.0,72,0.00,,,0.00,WUHU216HW,2013-02-05 05:41:00,
2013-02-04 23:46:00,63.8,55.0,29.84,ESE,113,0.0,0.0,73,0.00,,,0.00,WUHU216HW,2013-02-05 05:46:00,
2013-02-04 23:51:00,63.6,54.8,29.84,ENE,68,0.0,0.0,73,0.00,,,0.00,WUHU216HW,2013-02-05 05:51:00,
2013-02-04 23:56:00,63.6,54.8,29.84,East,90,0.0,0.0,73,0.00,,,0.00,WUHU216HW,2013-02-05 05:56:00,